Lid_Strength_Index
2 4 5 5 9 8 10 8 6 7 6 4 4 5 5 6 8 11 1 1 0 0 -0 -0 -0 -0 -1 -1 -1 -1 -1 -1 -1 -1 -1 -1 -1 -1 -1 -1 -1 -1 -1 -1 -1 -1 -1 -1 -1
3 4 5 7 10 11 10 7 7 6 4 4 4 5 5 7 4 3 3 1 0 0 -0 -0 -0 -0 -1 -1 -1 -1 -1 -1 -1 -1 -1 -1 -1 -1 -1 -1 -1 -1 -1 -1 -1 -1 -1 -1 -1
2 2 7 10 11 11 9 6 6 5 4 4 4 3 4 6 3 3 1 0 0 0 -0 -0 -0 -1 -1 -1 -1 -1 -1 -1 -1 -1 -1 -1 -1 -1 -1 -1 -1 -2 -1 -1 -1 -1 -1 -1 -1
4 5 6 10 12 9 8 6 6 5 4 4 4 5 4 3 3 2 0 0 0 0 -0 -0 -0 -0 -1 -1 -1 -1 -1 -1 -1 -1 -1 -1 -1 -1 -1 -1 -1 -2 -1 -1 -1 -1 -1 -1 -1
4 6 10 11 11 8 6 6 6 6 5 5 5 5 5 2 1 1 1 0 1 0 -0 -0 -0 -0 -1 -1 -1 -1 -1 -1 -1 -1 -1 -1 -1 -1 -1 -1 -1 -2 -1 -1 -1 -1 -1 -1 -1
6 7 10 11 10 8 6 5 6 6 4 4 5 5 5 2 2 1 1 1 0 0 0 -0 -1 -1 -0 -0 -1 -1 -1 -1 -1 -1 -1 -1 -1 -1 -1 -1 -1 -1 -1 -1 -1 -1 -1 -1 -1
7 8 10 10 9 8 7 5 6 6 5 5 4 6 4 3 2 1 1 0 0 0 0 -0 -0 -1 -1 -1 -1 -1 -1 -1 -1 -1 -1 -1 -1 -1 -1 -1 -1 -1 -1 -1 -1 -1 -1 -1 -1
5 7 9 9 9 9 5 5 4 5 6 3 3 5 5 3 1 1 1 1 1 0 0 0 -0 -0 -0 -0 -1 -1 -1 -1 -1 -1 -1 -1 -1 -1 -1 -1 -1 -1 -1 -1 -1 -1 -1 -2 -1
4 9 10 9 8 8 5 5 4 3 4 4 4 4 3 2 1 2 2 1 1 1 0 0 0 -0 -0 -0 -1 -1 -1 -1 -1 -1 -1 -1 -1 -1 -1 -1 -1 -1 -1 -1 -1 -1 -2 -2 -2
6 8 9 7 6 6 5 5 5 5 6 5 5 3 2 2 2 3 3 3 2 2 1 0 0 -0 -0 -0 -0 -1 -1 -1 -1 -1 -1 -1 -1 -1 -1 -2 -1 -1 -1 -1 -1 -2 -2 -1 -0
6 8 7 6 5 5 5 5 4 6 7 6 5 4 3 3 3 3 3 2 2 1 1 0 0 -0 -0 0 -0 -0 -0 -1 -1 -1 -1 -1 -1 -1 -1 -1 -1 -1 -1 -1 -1 -1 -0 -0 -0
9 6 6 6 5 5 6 4 5 5 5 4 4 3 3 3 3 3 3 2 2 2 1 0 0 0 -0 -0 -0 -0 -0 -0 -0 -1 -1 -1 -0 -0 -0 -0 -0 -0 -1 -0 -0 -0 -0 -0 -0
8 7 6 5 5 5 5 6 6 6 4 3 3 4 4 3 3 2 2 2 2 2 1 1 0 0 -0 0 -0 -0 -0 -0 -0 -1 -1 -1 -0 0 -0 -0 -0 -0 -1 -0 -0 0 -0 -0 -0
6 7 6 6 6 5 6 6 6 5 4 4 4 4 4 3 3 2 2 2 2 2 2 1 1 0 0 0 0 0 -0 -0 -0 -0 -0 -1 -1 -0 -0 0 -0 -0 -1 -1 -0 0 0 0 0
6 8 7 6 6 6 5 7 8 5 4 5 5 4 4 4 3 3 2 2 2 2 1 1 1 0 0 -0 0 -0 -0 -0 -0 -0 -1 -1 -1 -1 -0 -0 -0 -0 -1 -1 -1 -0 -0 0 0
8 8 10 7 6 6 7 10 7 5 5 5 5 5 4 3 4 3 2 2 2 2 2 1 1 1 1 0 -0 -0 0 -0 0 -1 -0 -1 -1 -1 -1 0 0 -0 -0 -0 0 0 1 1 1
8 11 10 9 6 7 8 10 7 5 5 5 5 5 4 4 3 2 1 2 2 2 2 2 1 1 1 0 0 -0 -0 0 -0 -0 -0 -1 -1 -1 -0 -0 -0 -0 -0 -0 0 1 1 1 1
11 11 10 10 8 8 8 9 7 6 6 6 5 5 5 4 3 2 1 1 2 2 2 1 1 1 1 1 0 0 -0 -0 -0 -0 -0 -0 -1 -1 -1 -0 -0 -0 0 0 0 1 0 1 1
8 9 10 8 7 8 8 8 8 6 6 6 5 5 5 4 2 2 1 2 2 2 2 2 2 1 1 1 2 2 2 1 0 -0 -0 -0 -1 -1 -0 -0 -0 -0 0 1 0 1 1 2 1
8 9 9 8 7 8 8 9 7 6 6 5 5 5 4 4 3 2 2 2 3 3 2 2 1 1 1 1 1 1 1 0 -0 -0 -0 -0 -0 -1 -0 -0 -0 -0 0 1 1 1 2 2 1
9 9 9 9 8 7 8 10 9 7 6 5 5 4 4 4 4 3 3 3 3 3 2 2 1 1 1 1 0 1 0 1 1 1 0 -0 -0 -1 -0 -0 -0 0 0 1 1 1 1 3 2
11 8 8 9 9 12 8 14 9 7 7 6 5 5 4 4 3 3 3 3 3 2 2 1 1 1 1 1 1 2 2 3 1 1 0 0 -0 -0 -1 -0 -0 0 0 1 1 0 1 1 3
9 7 8 9 10 10 10 12 10 7 8 7 6 5 4 3 3 3 3 3 2 2 2 2 1 1 1 1 1 1 2 1 1 1 1 1 -0 -0 -0 -0 -0 0 0 0 0 1 1 1 2
7 8 8 8 10 14 10 11 11 9 8 7 5 5 4 4 3 3 3 2 3 2 2 2 2 2 1 1 1 1 2 2 2 2 2 1 1 0 -0 -0 -0 -0 0 0 0 0 1 1 1
9 10 15 15 16 16 10 11 10 7 6 6 6 5 4 3 3 3 3 3 3 3 2 2 2 2 2 1 1 1 1 1 2 2 2 2 1 1 0 -0 0 0 -0 -0 -0 0 1 1 1
10 10 16 18 20 16 11 13 10 6 5 5 5 5 4 4 3 3 3 3 3 3 3 2 2 2 2 1 1 1 1 1 1 2 1 1 1 1 -0 -0 -0 -0 -0 -0 -0 0 0 0 1
9 12 9 12 11 13 12 10 8 7 6 6 5 5 5 4 4 3 3 3 3 3 3 3 2 2 2 1 1 3 2 2 1 1 1 1 0 1 0 -0 -0 -0 -0 -0 -0 0 1 0 0
8 7 14 13 16 16 12 13 13 10 8 6 6 6 5 5 5 4 4 4 3 3 2 3 2 3 2 1 1 2 2 1 1 1 1 1 0 0 0 -0 -0 -0 -0 -0 -0 0 0 1 1
10 11 10 11 11 15 16 13 9 9 9 9 8 7 6 5 5 4 4 3 3 2 3 3 2 2 2 1 1 1 1 1 0 1 1 1 0 -0 0 0 0 -0 -0 -0 0 0 0 1 1
8 9 10 14 15 12 14 15 7 8 8 8 8 7 6 5 5 4 4 3 3 3 3 2 2 2 1 1 1 1 1 1 1 1 1 -0 0 0 0 0 0 0 0 -0 1 1 1 1 1